Regional Weather Roundup
Issued by NWS

Home | Current Version | Previous Version | Graphics & Text | Print | Product List | Glossary Off
Versions: 1 2 3 4 5 6 7 8 9 10 11 12 13 14 15 16 17 18 19 20 21 22 23 24 25 26 27 28 29 30 31 32 33 34 35 36 37 38 39 40 41 42 43 44 45 46 47 48 49 50

000
ASUS43 KMKX 261900
RWRWI

WISCONSIN REGIONAL WEATHER ROUNDUP
NATIONAL WEATHER SERVICE MILWAUKEE/SULLIVAN WI
200 PM CDT SUN MAR 26 2017

NOTE: "FAIR" INDICATES FEW OR NO CLOUDS BELOW 12,000 FEET WITH NO
SIGNIFICANT WEATHER AND/OR OBSTRUCTIONS TO VISIBILITY.

WIZ001-002-006>008-014>016-023>028-262000-
NORTHWEST WISCONSIN

CITY           SKY/WX    TMP DP  RH WIND       PRES   REMARKS
SUPERIOR ARPT  LGT RAIN  35  35  99 NE8       29.96F WCI  28
ASHLAND        CLOUDY    36  34  92 NE7       29.95S WCI  30
HAYWARD        CLOUDY    41  35  79 N8        29.90F
SIREN          CLOUDY    40  36  87 N6        29.91F
CUMBERLAND     CLOUDY    37  36  93 NE5       29.89S WCI  34
RICE LAKE      CLOUDY    40  37  89 CALM      29.90F
CHETEK         CLOUDY    39  37  90 CALM      29.89F
LADYSMITH      CLOUDY    41  38  88 N5        29.90F
EAU CLAIRE     NOT AVBL
MENOMONIE      CLOUDY    40  37  90 N3        29.89F
NEW RICHMOND   CLOUDY    40  37  89 NE6       29.90S
OSCEOLA        CLOUDY    41  41 100 N6        29.93F
$$

WIZ003>005-009-010-017-018-262000-
NORTH CENTRAL WISCONSIN

CITY           SKY/WX    TMP DP  RH WIND       PRES   REMARKS
MANITOWISH WTR CLOUDY    37  37 100 NE3       29.88F FOG
ARBOR VITAE    CLOUDY    37  36  94 CALM      29.88F
WOODRUFF       CLOUDY    37  36  94 CALM      29.88F
RHINELANDER    CLOUDY    37  36  96 NE6       29.87F WCI  32
EAGLE RIVER    CLOUDY    36  36  99 CALM      29.88F
LAND O LAKES   CLOUDY    38  36  93 CALM      29.90F
PHILLIPS       CLOUDY    38  38  99 NE5       29.88F WCI  35
TOMAHAWK       CLOUDY    38  36  93 NE3       29.88F FOG
MEDFORD        CLOUDY    38  36  94 E6        29.86F WCI  33
MERRILL        CLOUDY    38  37  99 E6        29.88F WCI  33
$$

WIZ029-030-035-036-043>047-262000-
CENTRAL WISCONSIN

CITY           SKY/WX    TMP DP  RH WIND       PRES   REMARKS
WAUSAU         CLOUDY    38  36  92 NE5       29.85F WCI  34
MOSINEE        CLOUDY    37  37 100 NE6       29.87F FOG     WCI  33
MARSHFIELD     CLOUDY    38  36  92 NE6       29.85F FOG     WCI  33
STEVENS POINT  CLOUDY    35  35 100 NE8       29.87F WCI  29
WAUPACA        DRIZZLE   40  38  96 N7        29.87F WCI  35
WAUTOMA        LGT RAIN  39  38  96 NE6       29.87S WCI  35
WISC RAPIDS    LGT RAIN  38  38 100 NE5       29.88S FOG     WCI  34
CAMP DOUGLAS   DRIZZLE   39  37  93 VRB3      29.86F FOG
$$

WIZ011>013-019>022-031-037>040-048>050-262000-
NORTHEAST WISCONSIN

CITY           SKY/WX    TMP DP  RH WIND       PRES   REMARKS
ANTIGO         DRIZZLE   35  35  99 NE6       29.87F WCI  30
SHAWANO        DRIZZLE   38  37  92 NE5       29.89F WCI  35
OCONTO         CLOUDY    37  36  95 NE5       29.89F WCI  34
STURGEON BAY   CLOUDY    39  38  96 NE6       29.89F WCI  35
GREEN BAY      CLOUDY    38  38 100 NE10      29.87F WCI  31
MANITOWOC      NOT AVBL
APPLETON       DRIZZLE   37  37 100 NE8       29.85F WCI  31
CLINTONVILLE   DRIZZLE   37  36  93 NE6       29.88F WCI  33
OSHKOSH        LGT RAIN  39  38  96 NE10      29.85F FOG     WCI  32
$$

WIZ032>034-041-042-053>061-262000-
SOUTHWEST WISCONSIN

CITY           SKY/WX    TMP DP  RH WIND       PRES   REMARKS
LA CROSSE      CLOUDY    42  39  89 N7        29.87F FOG
SPARTA         CLOUDY    39  38  98 N5        29.88S FOG
VIROQUA        CLOUDY    40  40 100 NE6       29.85R
BOSCOBEL       CLOUDY    45  42  89 N3        29.85S
PRAIRIE DU CHI CLOUDY    42  41  97 NW8       29.84F
PLATTEVILLE    CLOUDY    47  47 100 NE3       29.83S VSB 1
$$

WIZ056-057-062-063-064-067-068-262000-
SOUTH CENTRAL WISCONSIN

CITY           SKY/WX    TMP DP  RH WIND       PRES   REMARKS
REEDSBURG      DRIZZLE   39  39 100 N6        29.85S WCI  35
BARABOO/DELLS  RAIN      39  38  99 NE5       29.85S
LONE ROCK      NOT AVBL
MINERAL POINT  FOG       46  46 100 NE3       29.82S VSB 1/4
MADISON        LGT RAIN  45  42  89 NE3       29.83S
MIDDLETON      CLOUDY    46  46 100 NE3       29.84S
WATERTOWN      DRIZZLE   46  46 100 E5        29.83S
MONROE         FOG       46  46 100 NE5       29.81F VSB 1/4
JANESVILLE     CLOUDY    50  50 100 CALM      29.81S
$$

WIZ051-052-058>065-066-070>072-262000-
SOUTHEAST WISCONSIN

CITY           SKY/WX    TMP DP  RH WIND       PRES   REMARKS
MILWAUKEE      LGT RAIN  43  41  93 N5        29.83F VSB 1/4
WAUKESHA       LGT RAIN  41  41 100 E7        29.84S FOG
MILWAUKEE/TIMM LGT RAIN  41  39  93 NE6       29.84F FOG
RACINE         CLOUDY    47  45  93 N3        29.83F FOG
KENOSHA        CLOUDY    49  48  97 CALM      29.82F FOG
FOND DU LAC    LGT RAIN  42  39  89 NE8       29.84F FOG
SHEBOYGAN      LGT RAIN  40  39  97 NE10      29.85F FOG     WCI  33
WEST BEND      LGT RAIN  41  41 100 E6        29.84F
JUNEAU         DRIZZLE   44  43  97 CALM      29.84F
$$

LSZ147-162-262000-
LAKE SUPERIOR

STATION/POSITION TIME  TEMP    WIND        PRES    WAVE
                       AIR SEA DIR/SP/G            HT/PER
                 (UTC) (F)     (DEG/KT/KT) (MB)    (FT/S)
DEVILS ISLAND    1800   34      30/  7/  7 1015.5F
PORT WING        1840   34      30/ 12/ 14 1014.6F
SAXON HARBOR     1830   34     320/  4/  4 1013.9F
$$

LMZ867-665-643>646-262000-
LAKE MICHIGAN

STATION/POSITION TIME  TEMP    WIND        PRES    WAVE
                       AIR SEA DIR/SP/G            HT/PER
                 (UTC) (F)     (DEG/KT/KT) (MB)    (FT/S)
CHAMBERS ISLAND  1840   33      20/  8/ 10 1012.2S
NORTHPORT PIER   1840   35      70/ 11/ 14 1012.2F
KEWAUNEE LAKESHO 1830   36      30/  7/ 10 1011.6F
SHEBOYGAN LAKESH 1800   37      30/  8/  9 1011.8F
PORT WASHINGTON  1840   39      40/ 10/ 13 1011.9F
MILWAUKEE LAKESH 1830   39      20/  6/  7   N/A
KENOSHA   LAKESH 1800   40      10/  3/  4 1010.5
$$

TC  - TEMPERATURE IN CELSIUS
VSB - VISIBILITY IN STATUTE MILES
WCI - WIND CHILL INDEX
HX  - HEAT INDEX





USA.gov is the U.S. government's official web portal to all federal, state and local government web resources and services.